Darstellungsparameter: Aktuell verwendete Einstellungen:
Skalierung der Graphiken ... ?
xyx+y,   Skalierungsfaktor:      Skalierung: Modus: x, Faktor: 1
Darstellungszeitraum ... ?
Vom - - bis: - -   Zeitraum: 03.09.2022 - 03.09.2022
Min/Max/Avg-Anzeige ... ?
Zeige MMA aktuell
Zeige MMA Monat
Zeige MMA alles
Zeige --A aktuell
Zeige --A Monat
Zeige --A alles
Keine MMA-Anzeige
MMA:
Average (ber die Originaldaten)
MMA-Basis: 03.09.2022 - 03.09.2022
Quicknavigation für Darstellung... ?
Tage:      1T, 2T, 3T, 5T -1T -2T -3T -5T +1T +2T +3T +5T
Wochen: 1W, 2W, 3W -1W -2W -3W +1W +2W +3W
Monate: 1M, 3M, 6M -1M -3M -6M +1M +3M +6M
Jahre:    1J, 3J, 5J, 10J -1J -3J -5J -10J +1J +3J +5J +10J
Nutze für die Darstellung ... ?
Originaldaten oder Mittelwerte auf ...
Stundenbasis Tagesbasis Wochenbasis
Monatsbasis Jahresbasis      Datenbasis: Original-Daten
Darstellen als:
Statistik (Auto) Statistik J:M      Darstellung:
Zur Graphik,    zurück zur Übersicht aller Sensoren.
 
Tabellarische Datenbersicht: ?
 
Sensor: Nr:Datum:Temp:Abs-Feuchte:Windchill:Wind:
Aussen-T/F 1 03-09-2022 00:00:00 14.8 C 7.98 g/m*3 14.8 C 0 km/h
2 03-09-2022 00:05:00 14.8 C 7.98 g/m*3 14.8 C 0 km/h
3 03-09-2022 00:10:00 14.8 C 7.98 g/m*3 14.8 C 0 km/h
4 03-09-2022 00:15:00 14.7 C 7.93 g/m*3 14.7 C 0 km/h
5 03-09-2022 00:20:00 14.7 C 7.93 g/m*3 14.7 C 0 km/h
6 03-09-2022 00:25:00 14.7 C 8.06 g/m*3 14.7 C 0 km/h
7 03-09-2022 00:30:00 14.6 C 8.13 g/m*3 14.6 C 0 km/h
8 03-09-2022 00:35:00 14.5 C 8.08 g/m*3 14.5 C 0 km/h
9 03-09-2022 00:40:00 14.4 C 8.03 g/m*3 14.4 C 0 km/h
10 03-09-2022 00:45:00 14.3 C 8.11 g/m*3 14.3 C 0 km/h
11 03-09-2022 00:50:00 14.2 C 8.06 g/m*3 14.2 C 0 km/h
12 03-09-2022 00:55:00 14.2 C 8.18 g/m*3 14.2 C 0 km/h
13 03-09-2022 01:00:00 14.1 C 8.13 g/m*3 14.1 C 0 km/h
14 03-09-2022 01:05:00 14 C 8.2 g/m*3 14 C 0 km/h
15 03-09-2022 01:10:00 13.9 C 8.15 g/m*3 13.9 C 0 km/h
16 03-09-2022 01:15:00 13.9 C 8.15 g/m*3 13.9 C 0 km/h
17 03-09-2022 01:20:00 13.9 C 8.15 g/m*3 13.9 C 0 km/h
18 03-09-2022 01:25:00 13.8 C 8.22 g/m*3 13.8 C 0 km/h
19 03-09-2022 01:30:00 13.8 C 8.22 g/m*3 13.8 C 0 km/h
20 03-09-2022 01:35:00 13.8 C 8.22 g/m*3 13.8 C 0 km/h
21 03-09-2022 01:40:00 13.8 C 8.22 g/m*3 13.8 C 0 km/h
22 03-09-2022 01:45:00 13.7 C 8.17 g/m*3 13.7 C 0 km/h
23 03-09-2022 01:50:00 13.7 C 8.29 g/m*3 13.7 C 0 km/h
24 03-09-2022 01:55:00 13.7 C 8.29 g/m*3 13.7 C 1.6 km/h
25 03-09-2022 02:00:00 13.6 C 8.24 g/m*3 13.6 C 3.2 km/h
Sensor: Nr:Datum:Temp:Abs-Feuchte:Windchill:Wind:
Aussen-T/F 26 03-09-2022 02:05:00 13.6 C 8.24 g/m*3 13.6 C 1.6 km/h
27 03-09-2022 02:10:00 13.5 C 8.19 g/m*3 13.5 C 4.8 km/h
28 03-09-2022 02:15:00 13.5 C 8.3 g/m*3 13.5 C 4.8 km/h
29 03-09-2022 02:20:00 13.4 C 8.25 g/m*3 13.4 C 1.6 km/h
30 03-09-2022 02:25:00 13.4 C 8.25 g/m*3 13.4 C 1.6 km/h
31 03-09-2022 02:30:00 13.4 C 8.25 g/m*3 13.4 C 0 km/h
32 03-09-2022 02:35:00 13.4 C 8.25 g/m*3 13.4 C 0 km/h
33 03-09-2022 02:40:00 13.3 C 8.2 g/m*3 13.3 C 1.6 km/h
34 03-09-2022 02:45:00 13.3 C 8.2 g/m*3 13.3 C 1.6 km/h
35 03-09-2022 02:50:00 13.3 C 8.32 g/m*3 13.3 C 1.6 km/h
36 03-09-2022 02:55:00 13.3 C 8.32 g/m*3 13.3 C 1.6 km/h
37 03-09-2022 03:00:00 13.2 C 8.27 g/m*3 13.2 C 3.2 km/h
38 03-09-2022 03:05:00 13.2 C 8.27 g/m*3 13.2 C 3.2 km/h
39 03-09-2022 03:10:00 13.2 C 8.27 g/m*3 13.2 C 3.2 km/h
40 03-09-2022 03:15:00 13.2 C 8.27 g/m*3 13.2 C 4.8 km/h
41 03-09-2022 03:20:00 13.2 C 8.27 g/m*3 13.2 C 1.6 km/h
42 03-09-2022 03:25:00 13.3 C 8.32 g/m*3 13.3 C 4.8 km/h
43 03-09-2022 03:30:00 13.3 C 8.32 g/m*3 13.3 C 3.2 km/h
44 03-09-2022 03:35:00 13.4 C 8.37 g/m*3 13.4 C 1.6 km/h
45 03-09-2022 03:40:00 13.4 C 8.37 g/m*3 13.4 C 3.2 km/h
46 03-09-2022 03:45:00 13.4 C 8.37 g/m*3 13.4 C 3.2 km/h
47 03-09-2022 03:50:00 13.4 C 8.49 g/m*3 13.4 C 0 km/h
48 03-09-2022 03:55:00 13.4 C 8.37 g/m*3 13.4 C 0 km/h
49 03-09-2022 04:00:00 13.4 C 8.49 g/m*3 13.4 C 0 km/h
50 03-09-2022 04:05:00 13.5 C 8.54 g/m*3 13.5 C 0 km/h
Sensor: Nr:Datum:Temp:Abs-Feuchte:Windchill:Wind:
Aussen-T/F 51 03-09-2022 04:10:00 13.5 C 8.54 g/m*3 13.5 C 0 km/h
52 03-09-2022 04:15:00 13.5 C 8.54 g/m*3 13.5 C 0 km/h
53 03-09-2022 04:20:00 13.6 C 8.59 g/m*3 13.6 C 0 km/h
54 03-09-2022 04:25:00 13.6 C 8.47 g/m*3 13.6 C 0 km/h
55 03-09-2022 04:30:00 13.6 C 8.47 g/m*3 13.6 C 1.6 km/h
56 03-09-2022 04:35:00 13.7 C 8.53 g/m*3 13.7 C 0 km/h
57 03-09-2022 04:40:00 13.7 C 8.53 g/m*3 13.7 C 0 km/h
58 03-09-2022 04:45:00 13.8 C 8.58 g/m*3 13.8 C 0 km/h
59 03-09-2022 04:50:00 13.8 C 8.58 g/m*3 13.8 C 0 km/h
60 03-09-2022 04:55:00 13.8 C 8.58 g/m*3 13.8 C 0 km/h
61 03-09-2022 05:00:00 13.9 C 8.63 g/m*3 13.9 C 1.6 km/h
62 03-09-2022 05:05:00 14 C 8.81 g/m*3 14 C 0 km/h
63 03-09-2022 05:10:00 14.1 C 8.74 g/m*3 14.1 C 0 km/h
64 03-09-2022 05:15:00 14.1 C 8.86 g/m*3 14.1 C 0 km/h
65 03-09-2022 05:20:00 14.2 C 8.91 g/m*3 14.2 C 0 km/h
66 03-09-2022 05:25:00 14.2 C 9.04 g/m*3 14.2 C 0 km/h
67 03-09-2022 05:30:00 14.2 C 9.04 g/m*3 14.2 C 1.6 km/h
68 03-09-2022 05:35:00 14.2 C 8.91 g/m*3 14.2 C 1.6 km/h
69 03-09-2022 05:40:00 14.1 C 8.74 g/m*3 14.1 C 0 km/h
70 03-09-2022 05:45:00 14.1 C 8.86 g/m*3 14.1 C 1.6 km/h
71 03-09-2022 05:50:00 14.1 C 8.86 g/m*3 14.1 C 0 km/h
72 03-09-2022 05:55:00 14 C 8.81 g/m*3 14 C 0 km/h
73 03-09-2022 06:00:00 13.9 C 8.63 g/m*3 13.9 C 0 km/h
74 03-09-2022 06:05:00 13.9 C 8.63 g/m*3 13.9 C 0 km/h
75 03-09-2022 06:10:00 13.9 C 8.75 g/m*3 13.9 C 0 km/h
Sensor: Nr:Datum:Temp:Abs-Feuchte:Windchill:Wind:
Aussen-T/F 76 03-09-2022 06:15:00 13.8 C 8.7 g/m*3 13.8 C 0 km/h
77 03-09-2022 06:20:00 13.8 C 8.7 g/m*3 13.8 C 0 km/h
78 03-09-2022 06:25:00 13.8 C 8.7 g/m*3 13.8 C 0 km/h
79 03-09-2022 06:30:00 13.8 C 8.7 g/m*3 13.8 C 0 km/h
80 03-09-2022 06:35:00 13.8 C 8.7 g/m*3 13.8 C 0 km/h
81 03-09-2022 06:40:00 13.9 C 8.87 g/m*3 13.9 C 0 km/h
82 03-09-2022 06:45:00 13.9 C 8.87 g/m*3 13.9 C 0 km/h
83 03-09-2022 06:50:00 13.9 C 8.87 g/m*3 13.9 C 0 km/h
84 03-09-2022 06:55:00 14 C 8.81 g/m*3 14 C 0 km/h
85 03-09-2022 07:00:00 14 C 8.93 g/m*3 14 C 0 km/h
86 03-09-2022 07:05:00 14.1 C 8.98 g/m*3 14.1 C 0 km/h
87 03-09-2022 07:10:00 14.1 C 8.98 g/m*3 14.1 C 0 km/h
88 03-09-2022 07:15:00 14.2 C 9.04 g/m*3 14.2 C 0 km/h
89 03-09-2022 07:20:00 14.2 C 9.16 g/m*3 14.2 C 0 km/h
90 03-09-2022 07:25:00 14.3 C 9.21 g/m*3 14.3 C 0 km/h
91 03-09-2022 07:30:00 14.3 C 9.21 g/m*3 14.3 C 0 km/h
92 03-09-2022 07:35:00 14.4 C 9.27 g/m*3 14.4 C 0 km/h
93 03-09-2022 07:40:00 14.5 C 9.7 g/m*3 14.5 C 0 km/h
94 03-09-2022 07:45:00 14.7 C 10.32 g/m*3 14.7 C 1.6 km/h
95 03-09-2022 07:50:00 14.8 C 10.51 g/m*3 14.8 C 4.8 km/h
96 03-09-2022 07:55:00 14.8 C 10.64 g/m*3 14.8 C 3.2 km/h
97 03-09-2022 08:00:00 14.7 C 10.58 g/m*3 14.7 C 3.2 km/h
98 03-09-2022 08:05:00 14.5 C 10.57 g/m*3 14.5 C 6.4 km/h
99 03-09-2022 08:10:00 14.4 C 10.63 g/m*3 14.4 C 3.2 km/h
100 03-09-2022 08:15:00 14.3 C 10.57 g/m*3 14.3 C 4.8 km/h
Sensor: Nr:Datum:Temp:Abs-Feuchte:Windchill:Wind:
Aussen-T/F 101 03-09-2022 08:20:00 14.2 C 10.62 g/m*3 14.2 C 3.2 km/h
102 03-09-2022 08:25:00 14.1 C 10.56 g/m*3 14.1 C 1.6 km/h
103 03-09-2022 08:30:00 14 C 10.61 g/m*3 14 C 4.8 km/h
104 03-09-2022 08:35:00 13.9 C 10.55 g/m*3 13.9 C 4.8 km/h
105 03-09-2022 08:40:00 13.9 C 10.67 g/m*3 13.9 C 3.2 km/h
106 03-09-2022 08:45:00 13.9 C 10.79 g/m*3 13.9 C 1.6 km/h
107 03-09-2022 08:50:00 13.9 C 10.79 g/m*3 13.9 C 1.6 km/h
108 03-09-2022 08:55:00 13.9 C 10.79 g/m*3 13.9 C 1.6 km/h
109 03-09-2022 09:00:00 14 C 10.98 g/m*3 14 C 1.6 km/h
110 03-09-2022 09:05:00 14.1 C 11.04 g/m*3 14.1 C 0 km/h
111 03-09-2022 09:10:00 14.2 C 11.23 g/m*3 14.2 C 0 km/h
112 03-09-2022 09:15:00 14.3 C 11.3 g/m*3 14.3 C 1.6 km/h
113 03-09-2022 09:20:00 14.4 C 11.25 g/m*3 14.4 C 0 km/h
114 03-09-2022 09:25:00 14.4 C 11.25 g/m*3 14.4 C 0 km/h
115 03-09-2022 09:30:00 14.5 C 11.32 g/m*3 14.5 C 0 km/h
116 03-09-2022 09:35:00 14.6 C 11.51 g/m*3 14.6 C 0 km/h
117 03-09-2022 09:40:00 14.7 C 11.58 g/m*3 14.7 C 0 km/h
118 03-09-2022 09:45:00 14.8 C 11.65 g/m*3 14.8 C 0 km/h
119 03-09-2022 09:50:00 15 C 11.8 g/m*3 15 C 0 km/h
120 03-09-2022 09:55:00 15.1 C 11.87 g/m*3 15.1 C 0 km/h
121 03-09-2022 10:00:00 15.2 C 11.94 g/m*3 15.2 C 0 km/h
122 03-09-2022 10:05:00 15.3 C 11.88 g/m*3 15.3 C 1.6 km/h
123 03-09-2022 10:10:00 15.3 C 11.88 g/m*3 15.3 C 0 km/h
124 03-09-2022 10:15:00 15.3 C 11.75 g/m*3 15.3 C 0 km/h
125 03-09-2022 10:20:00 15.3 C 11.88 g/m*3 15.3 C 0 km/h
Sensor: Nr:Datum:Temp:Abs-Feuchte:Windchill:Wind:
Aussen-T/F 126 03-09-2022 10:25:00 15.5 C 12.03 g/m*3 15.5 C 0 km/h
127 03-09-2022 10:30:00 15.6 C 12.1 g/m*3 15.6 C 1.6 km/h
128 03-09-2022 10:35:00 15.7 C 12.18 g/m*3 15.7 C 0 km/h
129 03-09-2022 10:40:00 15.8 C 12.38 g/m*3 15.8 C 0 km/h
130 03-09-2022 10:45:00 15.8 C 12.25 g/m*3 15.8 C 0 km/h
131 03-09-2022 10:50:00 15.8 C 12.25 g/m*3 15.8 C 0 km/h
132 03-09-2022 10:55:00 15.8 C 12.25 g/m*3 15.8 C 0 km/h
133 03-09-2022 11:00:00 15.9 C 12.32 g/m*3 15.9 C 0 km/h
134 03-09-2022 11:05:00 16.1 C 12.47 g/m*3 16.1 C 0 km/h
135 03-09-2022 11:10:00 16.2 C 12.55 g/m*3 16.2 C 0 km/h
136 03-09-2022 11:15:00 16.3 C 12.35 g/m*3 16.3 C 1.6 km/h
137 03-09-2022 11:20:00 16.3 C 12.21 g/m*3 16.3 C 0 km/h
138 03-09-2022 11:25:00 16.4 C 12.28 g/m*3 16.4 C 1.6 km/h
139 03-09-2022 11:30:00 16.6 C 12.57 g/m*3 16.6 C 0 km/h
140 03-09-2022 11:35:00 16.7 C 12.51 g/m*3 16.7 C 1.6 km/h
141 03-09-2022 11:40:00 16.8 C 12.44 g/m*3 16.8 C 0 km/h
142 03-09-2022 11:45:00 16.9 C 12.51 g/m*3 16.9 C 0 km/h
143 03-09-2022 11:50:00 17 C 12.3 g/m*3 17 C 1.6 km/h
144 03-09-2022 11:55:00 17.1 C 12.37 g/m*3 17.1 C 0 km/h
145 03-09-2022 12:00:00 17.3 C 12.52 g/m*3 17.3 C 0 km/h
146 03-09-2022 12:05:00 17.3 C 12.23 g/m*3 17.3 C 0 km/h
147 03-09-2022 12:10:00 17.3 C 12.52 g/m*3 17.3 C 0 km/h
148 03-09-2022 12:15:00 17.5 C 12.82 g/m*3 17.5 C 0 km/h
149 03-09-2022 12:20:00 17.6 C 12.9 g/m*3 17.6 C 0 km/h
150 03-09-2022 12:25:00 17.7 C 12.82 g/m*3 17.7 C 0 km/h
Sensor: Nr:Datum:Temp:Abs-Feuchte:Windchill:Wind:
Aussen-T/F 151 03-09-2022 12:30:00 17.8 C 12.45 g/m*3 17.8 C 0 km/h
152 03-09-2022 12:35:00 17.8 C 12.45 g/m*3 17.8 C 0 km/h
153 03-09-2022 12:40:00 18 C 12.44 g/m*3 18 C 1.6 km/h
154 03-09-2022 12:45:00 18.2 C 12.59 g/m*3 18.2 C 1.6 km/h
155 03-09-2022 12:50:00 18.3 C 12.66 g/m*3 18.3 C 4.8 km/h
156 03-09-2022 12:55:00 18.7 C 12.81 g/m*3 18.7 C 0 km/h
157 03-09-2022 13:00:00 19.1 C 12.95 g/m*3 19.1 C 3.2 km/h
158 03-09-2022 13:05:00 19.4 C 12.85 g/m*3 19.4 C 1.6 km/h
159 03-09-2022 13:10:00 19.9 C 12.89 g/m*3 19.9 C 3.2 km/h
160 03-09-2022 13:15:00 20.4 C 13.27 g/m*3 20.4 C 4.8 km/h
161 03-09-2022 13:20:00 20.8 C 12.86 g/m*3 20.8 C 4.8 km/h
162 03-09-2022 13:25:00 21.1 C 12.9 g/m*3 21.1 C 6.4 km/h
163 03-09-2022 13:30:00 21.5 C 13.2 g/m*3 21.5 C 6.4 km/h
164 03-09-2022 13:35:00 21.9 C 13.12 g/m*3 21.9 C 8.1 km/h
165 03-09-2022 13:40:00 22.2 C 13.15 g/m*3 22.2 C 11.3 km/h
166 03-09-2022 13:45:00 22.4 C 13.11 g/m*3 22.4 C 11.3 km/h
167 03-09-2022 13:50:00 22.7 C 12.93 g/m*3 22.7 C 11.3 km/h
168 03-09-2022 13:55:00 22.9 C 13.28 g/m*3 22.9 C 8.1 km/h
169 03-09-2022 14:00:00 23.2 C 13.1 g/m*3 23.2 C 12.9 km/h
170 03-09-2022 14:05:00 23.2 C 13.31 g/m*3 23.2 C 11.3 km/h
171 03-09-2022 14:10:00 23.2 C 13.31 g/m*3 23.2 C 9.7 km/h
172 03-09-2022 14:15:00 23.3 C 13.17 g/m*3 23.3 C 9.7 km/h
173 03-09-2022 14:20:00 23.3 C 13.38 g/m*3 23.3 C 8.1 km/h
174 03-09-2022 14:25:00 23.6 C 13.4 g/m*3 23.6 C 8.1 km/h
175 03-09-2022 14:30:00 23.7 C 13.26 g/m*3 23.7 C 3.2 km/h
Sensor: Nr:Datum:Temp:Abs-Feuchte:Windchill:Wind:
Aussen-T/F 176 03-09-2022 14:35:00 23.9 C 13.41 g/m*3 23.9 C 6.4 km/h
177 03-09-2022 14:40:00 24.3 C 13.5 g/m*3 24.3 C 8.1 km/h
178 03-09-2022 14:45:00 24.6 C 13.5 g/m*3 24.6 C 6.4 km/h
179 03-09-2022 14:50:00 25.1 C 13.66 g/m*3 25.1 C 14.5 km/h
180 03-09-2022 14:55:00 25.3 C 13.34 g/m*3 25.3 C 12.9 km/h
181 03-09-2022 15:00:00 25.7 C 13.89 g/m*3 25.7 C 8.1 km/h
182 03-09-2022 15:05:00 26.1 C 13.71 g/m*3 26.1 C 6.4 km/h
183 03-09-2022 15:10:00 26.1 C 13.46 g/m*3 26.1 C 8.1 km/h
184 03-09-2022 15:15:00 26.1 C 13.46 g/m*3 26.1 C 12.9 km/h
185 03-09-2022 15:20:00 25.9 C 13.56 g/m*3 25.9 C 9.7 km/h
186 03-09-2022 15:25:00 26 C 13.88 g/m*3 26 C 9.7 km/h
187 03-09-2022 15:30:00 26.3 C 13.62 g/m*3 26.3 C 9.7 km/h
188 03-09-2022 15:35:00 26.4 C 13.69 g/m*3 26.4 C 9.7 km/h
189 03-09-2022 15:40:00 26.7 C 13.67 g/m*3 26.7 C 11.3 km/h
190 03-09-2022 15:45:00 26.9 C 13.56 g/m*3 26.9 C 4.8 km/h
191 03-09-2022 15:50:00 26.9 C 13.56 g/m*3 26.9 C 11.3 km/h
192 03-09-2022 15:55:00 26.9 C 13.82 g/m*3 26.9 C 12.9 km/h
193 03-09-2022 16:00:00 26.7 C 13.67 g/m*3 26.7 C 8.1 km/h
194 03-09-2022 16:05:00 26.2 C 13.29 g/m*3 26.2 C 9.7 km/h
195 03-09-2022 16:10:00 25.6 C 13.33 g/m*3 25.6 C 14.5 km/h
196 03-09-2022 16:15:00 25.2 C 13.5 g/m*3 25.2 C 6.4 km/h
197 03-09-2022 16:20:00 25.1 C 13.43 g/m*3 25.1 C 9.7 km/h
198 03-09-2022 16:25:00 25.1 C 13.43 g/m*3 25.1 C 11.3 km/h
199 03-09-2022 16:30:00 25.1 C 13.66 g/m*3 25.1 C 11.3 km/h
200 03-09-2022 16:35:00 25.4 C 13.65 g/m*3 25.4 C 16.1 km/h
Sensor: Nr:Datum:Temp:Abs-Feuchte:Windchill:Wind:
Aussen-T/F 201 03-09-2022 16:40:00 25.5 C 13.49 g/m*3 25.5 C 16.1 km/h
202 03-09-2022 16:45:00 25.4 C 13.42 g/m*3 25.4 C 6.4 km/h
203 03-09-2022 16:50:00 25.1 C 13.43 g/m*3 25.1 C 6.4 km/h
204 03-09-2022 16:55:00 24.8 C 13.43 g/m*3 24.8 C 3.2 km/h
205 03-09-2022 17:00:00 24.5 C 13.43 g/m*3 24.5 C 6.4 km/h
206 03-09-2022 17:05:00 24.2 C 13.42 g/m*3 24.2 C 6.4 km/h
207 03-09-2022 17:10:00 24.1 C 14.66 g/m*3 24.1 C 20.9 km/h
208 03-09-2022 17:15:00 23.1 C 15.3 g/m*3 23.1 C 20.9 km/h
209 03-09-2022 17:20:00 22.1 C 15.23 g/m*3 22.1 C 6.4 km/h
210 03-09-2022 17:25:00 21.3 C 14.91 g/m*3 21.3 C 1.6 km/h
211 03-09-2022 17:30:00 20.8 C 14.85 g/m*3 20.8 C 0 km/h
212 03-09-2022 17:35:00 20.5 C 14.95 g/m*3 20.5 C 1.6 km/h
213 03-09-2022 17:40:00 20.3 C 14.95 g/m*3 20.3 C 1.6 km/h
214 03-09-2022 17:45:00 20.1 C 14.95 g/m*3 20.1 C 1.6 km/h
215 03-09-2022 17:50:00 19.9 C 14.95 g/m*3 19.9 C 1.6 km/h
216 03-09-2022 17:55:00 19.7 C 14.94 g/m*3 19.7 C 6.4 km/h
217 03-09-2022 18:00:00 19.5 C 14.77 g/m*3 19.5 C 4.8 km/h
218 03-09-2022 18:05:00 19.2 C 14.68 g/m*3 19.2 C 4.8 km/h
219 03-09-2022 18:10:00 19.1 C 14.75 g/m*3 19.1 C 1.6 km/h
220 03-09-2022 18:15:00 18.9 C 14.58 g/m*3 18.9 C 3.2 km/h
221 03-09-2022 18:20:00 18.8 C 14.66 g/m*3 18.8 C 8.1 km/h
222 03-09-2022 18:25:00 18.8 C 14.66 g/m*3 18.8 C 4.8 km/h
223 03-09-2022 18:30:00 18.7 C 14.73 g/m*3 18.7 C 1.6 km/h
224 03-09-2022 18:35:00 18.7 C 14.73 g/m*3 18.7 C 1.6 km/h
225 03-09-2022 18:40:00 18.7 C 14.73 g/m*3 18.7 C 1.6 km/h
Sensor: Nr:Datum:Temp:Abs-Feuchte:Windchill:Wind:
Aussen-T/F 226 03-09-2022 18:45:00 18.7 C 14.73 g/m*3 18.7 C 0 km/h
227 03-09-2022 18:50:00 18.6 C 14.64 g/m*3 18.6 C 0 km/h
228 03-09-2022 18:55:00 18.6 C 14.64 g/m*3 18.6 C 0 km/h
229 03-09-2022 19:00:00 18.6 C 14.8 g/m*3 18.6 C 0 km/h
230 03-09-2022 19:05:00 18.6 C 14.8 g/m*3 18.6 C 0 km/h
231 03-09-2022 19:10:00 18.6 C 14.8 g/m*3 18.6 C 0 km/h
232 03-09-2022 19:15:00 18.6 C 14.8 g/m*3 18.6 C 0 km/h
233 03-09-2022 19:20:00 18.7 C 14.89 g/m*3 18.7 C 4.8 km/h
234 03-09-2022 19:25:00 18.7 C 14.89 g/m*3 18.7 C 1.6 km/h
235 03-09-2022 19:30:00 18.7 C 14.89 g/m*3 18.7 C 1.6 km/h
236 03-09-2022 19:35:00 18.6 C 14.8 g/m*3 18.6 C 1.6 km/h
237 03-09-2022 19:40:00 18.6 C 14.8 g/m*3 18.6 C 1.6 km/h
238 03-09-2022 19:45:00 18.4 C 14.63 g/m*3 18.4 C 0 km/h
239 03-09-2022 19:50:00 18.4 C 14.63 g/m*3 18.4 C 0 km/h
240 03-09-2022 19:55:00 18.4 C 14.63 g/m*3 18.4 C 0 km/h
241 03-09-2022 20:00:00 18.4 C 14.63 g/m*3 18.4 C 0 km/h
242 03-09-2022 20:05:00 18.3 C 14.54 g/m*3 18.3 C 0 km/h
243 03-09-2022 20:10:00 18.3 C 14.54 g/m*3 18.3 C 0 km/h
244 03-09-2022 20:15:00 18.2 C 14.46 g/m*3 18.2 C 0 km/h
245 03-09-2022 20:20:00 18.1 C 14.37 g/m*3 18.1 C 0 km/h
246 03-09-2022 20:25:00 17.9 C 14.05 g/m*3 17.9 C 0 km/h
247 03-09-2022 20:30:00 17.7 C 13.88 g/m*3 17.7 C 0 km/h
248 03-09-2022 20:35:00 17.5 C 13.72 g/m*3 17.5 C 0 km/h
249 03-09-2022 20:40:00 17.3 C 13.55 g/m*3 17.3 C 1.6 km/h
250 03-09-2022 20:45:00 17.2 C 13.47 g/m*3 17.2 C 0 km/h
Sensor: Nr:Datum:Temp:Abs-Feuchte:Windchill:Wind:
Aussen-T/F 251 03-09-2022 20:50:00 17.1 C 13.39 g/m*3 17.1 C 0 km/h
252 03-09-2022 20:55:00 16.9 C 13.23 g/m*3 16.9 C 0 km/h
253 03-09-2022 21:00:00 16.8 C 13.15 g/m*3 16.8 C 0 km/h
254 03-09-2022 21:05:00 16.7 C 13.22 g/m*3 16.7 C 0 km/h
255 03-09-2022 21:10:00 16.6 C 13.14 g/m*3 16.6 C 0 km/h
256 03-09-2022 21:15:00 16.5 C 13.06 g/m*3 16.5 C 0 km/h
257 03-09-2022 21:20:00 16.4 C 12.98 g/m*3 16.4 C 0 km/h
258 03-09-2022 21:25:00 16.4 C 12.98 g/m*3 16.4 C 0 km/h
259 03-09-2022 21:30:00 16.4 C 13.12 g/m*3 16.4 C 0 km/h
260 03-09-2022 21:35:00 16.4 C 13.12 g/m*3 16.4 C 0 km/h
261 03-09-2022 21:40:00 16.4 C 13.12 g/m*3 16.4 C 0 km/h
262 03-09-2022 21:45:00 16.4 C 13.12 g/m*3 16.4 C 0 km/h
263 03-09-2022 21:50:00 16.2 C 12.82 g/m*3 16.2 C 0 km/h
264 03-09-2022 21:55:00 16.1 C 12.75 g/m*3 16.1 C 0 km/h
265 03-09-2022 22:00:00 16 C 12.67 g/m*3 16 C 0 km/h
266 03-09-2022 22:05:00 15.9 C 12.59 g/m*3 15.9 C 0 km/h
267 03-09-2022 22:10:00 15.9 C 12.73 g/m*3 15.9 C 0 km/h
268 03-09-2022 22:15:00 15.8 C 12.52 g/m*3 15.8 C 0 km/h
269 03-09-2022 22:20:00 15.8 C 12.65 g/m*3 15.8 C 0 km/h
270 03-09-2022 22:25:00 15.7 C 12.58 g/m*3 15.7 C 0 km/h
271 03-09-2022 22:30:00 15.7 C 12.58 g/m*3 15.7 C 0 km/h
272 03-09-2022 22:35:00 15.6 C 12.5 g/m*3 15.6 C 0 km/h
273 03-09-2022 22:40:00 15.5 C 12.43 g/m*3 15.5 C 1.6 km/h
274 03-09-2022 22:45:00 15.5 C 12.43 g/m*3 15.5 C 1.6 km/h
275 03-09-2022 22:50:00 15.4 C 12.35 g/m*3 15.4 C 0 km/h
Sensor: Nr:Datum:Temp:Abs-Feuchte:Windchill:Wind:
Aussen-T/F 276 03-09-2022 22:55:00 15.4 C 12.35 g/m*3 15.4 C 0 km/h
277 03-09-2022 23:00:00 15.4 C 12.35 g/m*3 15.4 C 0 km/h
278 03-09-2022 23:05:00 15.4 C 12.35 g/m*3 15.4 C 0 km/h
279 03-09-2022 23:10:00 15.3 C 12.28 g/m*3 15.3 C 0 km/h
280 03-09-2022 23:15:00 15.3 C 12.28 g/m*3 15.3 C 0 km/h
281 03-09-2022 23:20:00 15.3 C 12.28 g/m*3 15.3 C 0 km/h
282 03-09-2022 23:25:00 15.4 C 12.48 g/m*3 15.4 C 0 km/h
283 03-09-2022 23:30:00 15.4 C 12.48 g/m*3 15.4 C 0 km/h
284 03-09-2022 23:35:00 15.4 C 12.48 g/m*3 15.4 C 0 km/h
285 03-09-2022 23:40:00 15.6 C 12.63 g/m*3 15.6 C 0 km/h
286 03-09-2022 23:45:00 15.6 C 12.63 g/m*3 15.6 C 0 km/h
287 03-09-2022 23:50:00 15.5 C 12.56 g/m*3 15.5 C 0 km/h
288 03-09-2022 23:55:00 15.4 C 12.35 g/m*3 15.4 C 0 km/h

Legende:
   Min
   Max


Maximal/Minimal-Werte vom 03.09.2022 - 03.09.2022

Sensor Min Max Avg
Temp
(Aussen-T/F)
13.2 °C
03-09-2022  03:00:00
26.9 °C
03-09-2022  15:45:00
17.12 °C
Abs-Feuchte
(Aussen-T/F)
7.93 g/m*3
03-09-2022  00:15:00
15.3 g/m*3
03-09-2022  17:15:00
11.51 g/m*3
Windchill
(Aussen-T/F)
13.2 C
03-09-2022  03:00:00
26.9 C
03-09-2022  15:45:00
17.06 C

Die Daten stammen von einer Davis Vantage Pro 2 Wetter-Station und werden unter Linux mit der Software wview2wettercgi und aufbereitet. Alle Angaben erfolgen ohne Gewähr für ihre Vollständigkeit oder Richtigkeit.
Kontakt: Rainer Krienke krienke@uni-koblenz.de . Meine Webseiten an der Uni Koblenz oder privat.
Version: $Revision: 0.78 $